{"data":{"norad_id":57792,"intl_designator":"2023-135A","name":"TIANQI-21","alt_names":[],"object_type":"PAYLOAD","status":"ACTIVE","operator":null,"country":"PRC","launch_date":"2023-09-05","launch_site_code":"SEAL","launch_vehicle":null,"mission":null,"orbit_class":"UNKNOWN","rcs_meters":null,"size_class":null,"mass_kg":null,"dimensions":null,"purposes":[],"wikipedia_slug":null,"has_3d_model":false,"image_url":null,"decayed_at":null,"tle_current":{"epoch":"2026-09-22T21:00:27.241056Z","epoch_age_seconds":100891,"freshness":"FRESH","line1":"1 57792U 23135A   26265.87531529  .00000109  00000+0  11779-3 0  9992","line2":"2 57792  49.9706 101.2729 0012850 236.9928 122.9750 14.23163134158541","mean_motion":14.23163134,"eccentricity":0.001285,"inclination_deg":49.9706,"raan_deg":101.2729,"arg_perigee_deg":236.9928,"mean_anomaly_deg":122.975,"bstar":0.00011779,"rev_number":15854,"period_min":101.18305945382,"perigee_km":805.4323803271,"apogee_km":823.91790753701,"semimajor_km":7192.8121439321,"source":"CELESTRAK","updated_at":"2026-09-23T09:00:18.382846Z"}}}